Flag for Brazil Weather past 2 weeks in Manaus, Amazonas, Brazil

Now
84 °F

Clear.


Feels Like: 91 °F
Forecast: 77 / 94 °F
Wind: 3 mph from Southeast

Location: Manaus Aeroporto

Current Time: Aug 27, 2015 at 9:07:06 PM

Latest Report: Aug 27, 2015 at 9:00 PM


Visibility: 10 mi

Pressure: 29.86 "Hg

Humidity: 70%

Dew point: 73 °F

Location of ManausLocation

Historic Weather in Manaus — Graph

°F

Manaus temperature yesterday

Maximum temperature yesterday: 91 °F (at 2:00 PM)
Minimum temperature yesterday: 79 °F (at 12:00 AM)
Average temperature yesterday: 84 °F

Past Weeks' High & Low Weather Summary

 TemperatureHumidityPressure
High95 °F (Aug 23, 2:00 PM)89% (Aug 15, 3:00 AM)29.95 "Hg (Aug 15, 3:00 AM)
Low77 °F (Aug 14, 6:00 AM)43% (Aug 13, 10:00 AM)29.71 "Hg (Aug 25, 5:00 PM)
Average85 °F67%29.86 "Hg
* Reported Aug 12 8:00 PM — Aug 27 8:00 PM, Manaus, Weather by CustomWeather, © 2015

Note: Actual official high and low records may vary slightly from our data, if they occured in-between our weather recording intervals... More about our weather records

Advertising

Manaus weather history for previous 24 hours

 ConditionsComfort  
Time TempWeatherWind HumidityBarometerVisibility
8:00 PM
Thu, Aug 27
86 °FClear.3 mph66%29.83 "Hg10 mi
7:00 PM86 °FPassing clouds.3 mph62%29.83 "HgN/A
6:00 PM88 °FPassing clouds.3 mph59%29.80 "HgN/A
5:00 PM91 °FPassing clouds.5 mph52%29.80 "HgN/A
4:00 PM91 °FPassing clouds.5 mph52%29.83 "HgN/A
3:00 PM91 °FScattered clouds.6 mph52%29.83 "HgN/A
2:00 PM93 °FScattered clouds.7 mph49%29.83 "HgN/A
1:00 PM91 °FScattered clouds.8 mph56%29.89 "HgN/A
12:00 PM90 °FScattered clouds.6 mph59%29.92 "HgN/A
11:00 AM90 °FPassing clouds.7 mph59%29.92 "HgN/A
10:00 AM86 °FSunny.8 mph66%29.95 "Hg10 mi
9:00 AM86 °FSunny.10 mph62%29.95 "Hg10 mi
8:00 AM84 °FSunny.8 mph70%29.92 "Hg10 mi
7:00 AM81 °FSunny.6 mph79%29.89 "Hg10 mi
6:00 AM79 °FSunny.5 mph79%29.89 "Hg10 mi
5:00 AM79 °FClear.5 mph79%29.86 "Hg10 mi
4:00 AM79 °FClear.5 mph84%29.86 "Hg10 mi
3:00 AM81 °FClear.5 mph74%29.86 "Hg10 mi
2:00 AM81 °FClear.6 mph79%29.86 "Hg10 mi
1:00 AM81 °FClear.6 mph79%29.89 "Hg10 mi
12:00 AM82 °FThundershowers. Passing clouds.6 mph79%29.89 "HgN/A
11:00 PM
Wed, Aug 26
82 °FThundershowers. Passing clouds.7 mph74%29.89 "HgN/A
10:00 PM84 °FClear.8 mph70%29.89 "Hg10 mi
9:00 PM84 °FPassing clouds.8 mph74%29.86 "HgN/A
Weather by CustomWeather, © 2015

See weather overviewHow to use our weather pages